Location: Del Amo
(33.8464°N, 118.2104°W)
Time: 06:52:11
(UTC+00:00)

Vanguard 3 - Pass Details

Date: 13 September 2024
Orbit: 507 x 3223 km, 33.3° (Epoch: 12 October)

Event Time Altitude Azimuth Distance (km) Brightness Sun altitude
Rises 12:25:23 0° 207° (SSW) 6,240 11.3 -15.1°
Reaches altitude 10° 12:29:44 10° 198° (SSW) 5,534 11.1 -14.2°
Maximum altitude 12:45:06 36° 140° (SE) 4,325 11.1 -11.1°
Drops below altitude 10° 13:01:19 10° 83° (E) 5,889 13.3 -7.8°
Sets 13:06:02 0° 75° (ENE) 6,675 14.3 -6.9°
